Location: The Saddle
(36.8333°N, 80.3417°W)
Time: 17:53:05
(UTC-05:00)

Vanguard 2 Rocket - Pass Details

Date: 29 September 2023
Orbit: 553 x 3312 km, 32.9° (Epoch: 04 December)

Event Time Altitude Azimuth Distance (km) Brightness Sun altitude
Rises 19:47:50 0° 280° (W) 7,051 13.7 -8.8°
Reaches altitude 10° 19:55:42 10° 263° (W) 5,604 12.4 -10.4°
Maximum altitude 20:03:38 16° 233° (SW) 4,523 11.1 -12.0°
Drops below altitude 10° 20:10:04 10° 202° (SSW) 4,356 10.5 -13.2°
Sets 20:14:55 0° 180° (S) 4,809 10.5 -14.2°
